EFW3UL EHAM-EGKK

Flight info

Callsign EFW3UL
Flight time 0h 42m
Altitude 24000
Route IDRID L980 ABNED Z344 AMRIV Q63 ARREK Y4 TEBRA
Aircraft A320/M-SDE3FGHIRWY/LB1

Departure

Time 2026-04-17 21:43
Airport Amsterdam Airport Schiphol (EHAM)

Arrival

Time 2026-04-17 22:26
Airport London Gatwick Airport (EGKK)
Time Latitude Longitude Altitude Speed Heading
2026-04-17 21:34 52.30701 4.77343 -1 ft 0 kts
2026-04-17 21:35 52.30692 4.77342 -1 ft 4 kts
2026-04-17 21:35 52.30666 4.77335 -1 ft 4 kts 22°
2026-04-17 21:35 52.30646 4.77313 -1 ft 4 kts 68°
2026-04-17 21:36 52.30643 4.77296 -1 ft 0 kts 94°
2026-04-17 21:38 52.30642 4.77304 -1 ft 2 kts 94°
2026-04-17 21:38 52.30640 4.77346 -1 ft 5 kts 94°
2026-04-17 21:39 52.30640 4.77418 -1 ft 8 kts 91°
2026-04-17 21:39 52.30624 4.77500 -1 ft 8 kts 151°
2026-04-17 21:39 52.30562 4.77546 -1 ft 11 kts 152°
2026-04-17 21:39 52.30557 4.77550 -1 ft 0 kts 153°
2026-04-17 21:40 52.30549 4.77558 -1 ft 4 kts 152°
2026-04-17 21:40 52.30513 4.77589 -1 ft 0 kts 153°
2026-04-17 21:42 52.30511 4.77591 -1 ft 2 kts 153°
2026-04-17 21:42 52.30468 4.77628 -1 ft 9 kts 152°
2026-04-17 21:42 52.30404 4.77607 -1 ft 12 kts 229°
2026-04-17 21:42 52.30336 4.77429 -2 ft 31 kts 238°
2026-04-17 21:43 52.30110 4.76840 -2 ft 94 kts 238°
2026-04-17 21:43 52.29661 4.75668 -1 ft 147 kts 238°
2026-04-17 21:43 52.29044 4.74147 316 ft 164 kts 238°
2026-04-17 21:43 52.28401 4.72623 1034 ft 162 kts 234°
2026-04-17 21:44 52.27774 4.71065 1634 ft 171 kts 238°
2026-04-17 21:44 52.27140 4.69272 1942 ft 194 kts 240°
2026-04-17 21:44 52.26446 4.67254 2324 ft 215 kts 240°
2026-04-17 21:44 52.25699 4.65082 3039 ft 222 kts 239°
2026-04-17 21:45 52.24939 4.62879 3882 ft 224 kts 239°
2026-04-17 21:45 52.24166 4.60652 4718 ft 227 kts 239°
2026-04-17 21:45 52.23380 4.58397 5523 ft 230 kts 239°
2026-04-17 21:45 52.22586 4.56108 6350 ft 234 kts 242°
2026-04-17 21:46 52.21971 4.53634 7125 ft 238 kts 251°
2026-04-17 21:46 52.21438 4.51056 7896 ft 241 kts 250°
2026-04-17 21:46 52.20893 4.48450 8674 ft 245 kts 251°
2026-04-17 21:46 52.20338 4.45807 9451 ft 248 kts 251°
2026-04-17 21:47 52.19773 4.43122 10167 ft 254 kts 251°
2026-04-17 21:47 52.19174 4.40274 10498 ft 277 kts 251°
2026-04-17 21:47 52.18521 4.37177 10758 ft 301 kts 251°
2026-04-17 21:47 52.17815 4.33839 11042 ft 320 kts 251°
2026-04-17 21:48 52.17089 4.30414 11658 ft 327 kts 251°
2026-04-17 21:48 52.16341 4.26889 12377 ft 331 kts 250°
2026-04-17 21:48 52.15585 4.23329 13107 ft 334 kts 250°
2026-04-17 21:48 52.14821 4.19735 13842 ft 338 kts 250°
2026-04-17 21:49 52.14046 4.16102 14508 ft 341 kts 250°
2026-04-17 21:49 52.13253 4.12385 15173 ft 344 kts 250°
2026-04-17 21:49 52.12465 4.08703 15828 ft 346 kts 250°
2026-04-17 21:49 52.11678 4.05045 16477 ft 348 kts 250°
2026-04-17 21:50 52.10875 4.01317 17132 ft 350 kts 250°
2026-04-17 21:50 52.10067 3.97567 17797 ft 353 kts 250°
2026-04-17 21:50 52.09251 3.93793 18478 ft 355 kts 250°
2026-04-17 21:50 52.08428 3.89991 19096 ft 357 kts 250°
2026-04-17 21:51 52.07602 3.86179 19755 ft 358 kts 250°
2026-04-17 21:51 52.06773 3.82352 20384 ft 360 kts 250°
2026-04-17 21:51 52.05939 3.78502 21006 ft 362 kts 250°
2026-04-17 21:51 52.05097 3.74633 21610 ft 364 kts 250°
2026-04-17 21:52 52.04250 3.70742 22186 ft 366 kts 249°
2026-04-17 21:52 52.03397 3.66833 22754 ft 369 kts 249°
2026-04-17 21:52 52.02535 3.62898 23322 ft 371 kts 249°
2026-04-17 21:52 52.01668 3.58942 23859 ft 373 kts 249°
2026-04-17 21:53 52.00794 3.54965 24126 ft 374 kts 249°
2026-04-17 21:53 51.99874 3.51018 24198 ft 374 kts 244°
2026-04-17 21:53 51.98596 3.47355 24199 ft 374 kts 235°
2026-04-17 21:53 51.97059 3.43945 24209 ft 375 kts 234°
2026-04-17 21:54 51.95513 3.40539 24219 ft 375 kts 234°
2026-04-17 21:54 51.93972 3.37138 24212 ft 374 kts 234°
2026-04-17 21:54 51.92438 3.33746 24212 ft 373 kts 234°
2026-04-17 21:54 51.90906 3.30354 24212 ft 373 kts 234°
2026-04-17 21:55 51.89372 3.26968 24212 ft 373 kts 234°
2026-04-17 21:55 51.87833 3.23587 24212 ft 373 kts 234°
2026-04-17 21:55 51.86293 3.20213 24212 ft 373 kts 234°
2026-04-17 21:55 51.84806 3.16768 24211 ft 373 kts 239°
2026-04-17 21:56 51.83604 3.13049 24212 ft 373 kts 243°
2026-04-17 21:56 51.82433 3.09314 24209 ft 373 kts 242°
2026-04-17 21:56 51.81253 3.05573 24209 ft 373 kts 242°
2026-04-17 21:56 51.80081 3.01839 24209 ft 373 kts 244°
2026-04-17 21:57 51.79151 2.97926 24210 ft 374 kts 249°
2026-04-17 21:57 51.78287 2.93963 24209 ft 374 kts 250°
2026-04-17 21:57 51.77442 2.89993 24221 ft 374 kts 250°
2026-04-17 21:57 51.76605 2.86036 24202 ft 372 kts 250°
2026-04-17 21:58 51.75767 2.82092 24206 ft 372 kts 249°
2026-04-17 21:58 51.74919 2.78152 24206 ft 372 kts 249°
2026-04-17 21:58 51.74066 2.74217 24206 ft 371 kts 249°
2026-04-17 21:58 51.73212 2.70286 24204 ft 371 kts 249°
2026-04-17 21:59 51.72357 2.66356 24204 ft 371 kts 249°
2026-04-17 21:59 51.71501 2.62425 24204 ft 371 kts 249°
2026-04-17 21:59 51.70646 2.58497 24204 ft 371 kts 249°
2026-04-17 21:59 51.69792 2.54576 24133 ft 367 kts 249°
2026-04-17 22:00 51.68953 2.50744 23894 ft 359 kts 249°
2026-04-17 22:00 51.68124 2.46968 23644 ft 356 kts 249°
2026-04-17 22:00 51.67311 2.43271 23372 ft 354 kts 249°
2026-04-17 22:00 51.66487 2.39540 23121 ft 352 kts 249°
2026-04-17 22:01 51.65671 2.35845 22852 ft 349 kts 249°
2026-04-17 22:01 51.64861 2.32171 22583 ft 348 kts 249°
2026-04-17 22:01 51.64053 2.28509 22317 ft 346 kts 249°
2026-04-17 22:01 51.63233 2.24814 22049 ft 345 kts 249°
2026-04-17 22:02 51.62426 2.21180 21788 ft 345 kts 249°
2026-04-17 22:02 51.61630 2.17603 21533 ft 344 kts 249°
2026-04-17 22:02 51.60812 2.13940 21269 ft 343 kts 249°
2026-04-17 22:02 51.60007 2.10338 21016 ft 342 kts 249°
2026-04-17 22:03 51.59202 2.06746 20765 ft 341 kts 249°
2026-04-17 22:03 51.58398 2.03166 20514 ft 340 kts 249°
2026-04-17 22:03 51.57594 1.99587 20266 ft 339 kts 249°
2026-04-17 22:03 51.56794 1.96027 20019 ft 339 kts 249°
2026-04-17 22:04 51.55992 1.92471 19792 ft 338 kts 249°
2026-04-17 22:04 51.55204 1.88976 19540 ft 336 kts 249°
2026-04-17 22:04 51.54398 1.85402 19290 ft 335 kts 249°
2026-04-17 22:04 51.53614 1.81936 19061 ft 334 kts 249°
2026-04-17 22:05 51.52821 1.78428 18819 ft 334 kts 249°
2026-04-17 22:05 51.52026 1.74932 18589 ft 333 kts 249°
2026-04-17 22:05 51.51232 1.71443 18334 ft 332 kts 249°
2026-04-17 22:05 51.50440 1.67968 18064 ft 331 kts 249°
2026-04-17 22:06 51.49652 1.64511 17768 ft 327 kts 249°
2026-04-17 22:06 51.48836 1.61091 17342 ft 322 kts 243°
2026-04-17 22:06 51.47616 1.58137 16932 ft 324 kts 233°
2026-04-17 22:06 51.46239 1.55281 16519 ft 323 kts 232°
2026-04-17 22:07 51.44857 1.52444 16106 ft 322 kts 232°
2026-04-17 22:07 51.43476 1.49627 15710 ft 321 kts 232°
2026-04-17 22:07 51.42100 1.46825 15312 ft 319 kts 232°
2026-04-17 22:07 51.40729 1.44038 14928 ft 318 kts 232°
2026-04-17 22:08 51.39368 1.41269 14552 ft 316 kts 232°
2026-04-17 22:08 51.38015 1.38509 14169 ft 314 kts 232°
2026-04-17 22:08 51.36670 1.35760 13767 ft 313 kts 232°
2026-04-17 22:08 51.35326 1.33020 13332 ft 312 kts 232°
2026-04-17 22:09 51.34031 1.30248 12906 ft 310 kts 239°
2026-04-17 22:09 51.33264 1.27053 12494 ft 310 kts 256°
2026-04-17 22:09 51.32848 1.23670 12087 ft 308 kts 257°
2026-04-17 22:09 51.32445 1.20305 11801 ft 309 kts 257°
2026-04-17 22:10 51.32041 1.16937 11522 ft 308 kts 257°
2026-04-17 22:10 51.31638 1.13576 11245 ft 308 kts 257°
2026-04-17 22:10 51.31237 1.10223 10971 ft 307 kts 257°
2026-04-17 22:10 51.30834 1.06876 10702 ft 306 kts 257°
2026-04-17 22:11 51.30430 1.03539 10437 ft 306 kts 257°
2026-04-17 22:11 51.30027 1.00208 10177 ft 304 kts 257°
2026-04-17 22:11 51.29630 0.96925 9887 ft 297 kts 257°
2026-04-17 22:11 51.29241 0.93722 9577 ft 291 kts 257°
2026-04-17 22:12 51.28860 0.90574 9275 ft 285 kts 257°
2026-04-17 22:12 51.28489 0.87515 9056 ft 276 kts 257°
2026-04-17 22:12 51.28127 0.84546 8841 ft 268 kts 257°
2026-04-17 22:12 51.27773 0.81669 8639 ft 261 kts 257°
2026-04-17 22:13 51.27428 0.78870 8433 ft 254 kts 257°
2026-04-17 22:13 51.27089 0.76144 8224 ft 247 kts 257°
2026-04-17 22:13 51.26759 0.73489 8022 ft 241 kts 257°
2026-04-17 22:13 51.26439 0.70902 7822 ft 235 kts 257°
2026-04-17 22:14 51.26131 0.68413 7619 ft 229 kts 257°
2026-04-17 22:14 51.25828 0.65959 7429 ft 222 kts 257°
2026-04-17 22:14 51.25532 0.63570 7231 ft 216 kts 257°
2026-04-17 22:14 51.25242 0.61248 7041 ft 211 kts 257°
2026-04-17 22:15 51.24957 0.58980 6846 ft 206 kts 257°
2026-04-17 22:15 51.24678 0.56749 6655 ft 204 kts 257°
2026-04-17 22:15 51.24400 0.54528 6463 ft 204 kts 257°
2026-04-17 22:15 51.24121 0.52314 6284 ft 203 kts 257°
2026-04-17 22:16 51.23842 0.50103 6109 ft 203 kts 257°
2026-04-17 22:16 51.23565 0.47897 5928 ft 202 kts 257°
2026-04-17 22:16 51.23290 0.45708 5757 ft 200 kts 257°
2026-04-17 22:16 51.23015 0.43541 5578 ft 199 kts 257°
2026-04-17 22:17 51.22779 0.41374 5396 ft 198 kts 262°
2026-04-17 22:17 51.22607 0.39199 5223 ft 197 kts 258°
2026-04-17 22:17 51.22362 0.37053 5046 ft 196 kts 257°
2026-04-17 22:17 51.22090 0.34924 4870 ft 196 kts 256°
2026-04-17 22:18 51.21811 0.32803 4695 ft 195 kts 256°
2026-04-17 22:18 51.21531 0.30692 4517 ft 194 kts 256°
2026-04-17 22:18 51.21251 0.28589 4341 ft 193 kts 256°
2026-04-17 22:18 51.20973 0.26499 4199 ft 192 kts 256°
2026-04-17 22:19 51.20696 0.24417 4083 ft 192 kts 256°
2026-04-17 22:19 51.20419 0.22340 3976 ft 191 kts 256°
2026-04-17 22:19 51.20142 0.20268 3865 ft 191 kts 256°
2026-04-17 22:19 51.19865 0.18202 3779 ft 190 kts 256°
2026-04-17 22:20 51.19589 0.16144 3731 ft 187 kts 256°
2026-04-17 22:20 51.19329 0.14200 3745 ft 172 kts 255°
2026-04-17 22:20 51.19088 0.12402 3680 ft 160 kts 255°
2026-04-17 22:20 51.18859 0.10706 3516 ft 155 kts 255°
2026-04-17 22:21 51.18710 0.09599 3388 ft 152 kts 255°
2026-04-17 22:21 51.18490 0.07969 3202 ft 148 kts 255°
2026-04-17 22:21 51.18275 0.06375 3019 ft 147 kts 255°
2026-04-17 22:21 51.18061 0.04796 2830 ft 144 kts 255°
2026-04-17 22:22 51.17850 0.03235 2658 ft 144 kts 255°
2026-04-17 22:22 51.17639 0.01681 2480 ft 143 kts 255°
2026-04-17 22:22 51.17429 0.00129 2299 ft 143 kts 255°
2026-04-17 22:22 51.17218 -0.01424 2243 ft 143 kts 256°
2026-04-17 22:23 51.17010 -0.02961 2044 ft 138 kts 256°
2026-04-17 22:23 51.16808 -0.04442 1857 ft 135 kts 256°
2026-04-17 22:23 51.16610 -0.05900 1673 ft 135 kts 256°
2026-04-17 22:23 51.16412 -0.07352 1481 ft 134 kts 256°
2026-04-17 22:24 51.16215 -0.08795 1310 ft 133 kts 255°
2026-04-17 22:24 51.16012 -0.10234 1113 ft 134 kts 255°
2026-04-17 22:24 51.15814 -0.11684 890 ft 134 kts 256°
2026-04-17 22:24 51.15628 -0.13133 687 ft 133 kts 253°
2026-04-17 22:25 51.15422 -0.14584 588 ft 134 kts 255°
2026-04-17 22:25 51.15219 -0.16037 389 ft 136 kts 257°
2026-04-17 22:25 51.15025 -0.17500 235 ft 135 kts 255°
2026-04-17 22:25 51.14848 -0.18752 202 ft 80 kts 259°
2026-04-17 22:26 51.14786 -0.19255 205 ft 36 kts 261°
2026-04-17 22:26 51.14796 -0.19606 209 ft 24 kts 285°
2026-04-17 22:26 51.14832 -0.19848 209 ft 15 kts 289°
2026-04-17 22:26 51.14883 -0.19856 207 ft 9 kts 76°
2026-04-17 22:27 51.14900 -0.19748 215 ft 11 kts 70°
2026-04-17 22:27 51.14918 -0.19619 206 ft 13 kts 83°
2026-04-17 22:27 51.14937 -0.19458 209 ft 16 kts 79°
2026-04-17 22:27 51.14961 -0.19272 210 ft 19 kts 76°
2026-04-17 22:28 51.14994 -0.19045 203 ft 23 kts 78°
2026-04-17 22:28 51.15032 -0.18771 210 ft 27 kts 77°
2026-04-17 22:28 51.15074 -0.18464 213 ft 30 kts 77°
2026-04-17 22:28 51.15121 -0.18131 209 ft 31 kts 77°
2026-04-17 22:29 51.15162 -0.17824 208 ft 29 kts 77°
2026-04-17 22:29 51.15190 -0.17621 215 ft 10 kts 76°
2026-04-17 22:29 51.15208 -0.17496 207 ft 13 kts 74°
2026-04-17 22:29 51.15227 -0.17358 204 ft 9 kts 80°
2026-04-17 22:30 51.15268 -0.17334 208 ft 9 kts 338°
2026-04-17 22:30 51.15335 -0.17364 208 ft 11 kts 357°
2026-04-17 22:30 51.15372 -0.17268 204 ft 7 kts 76°
2026-04-17 22:30 51.15376 -0.17243 213 ft 0 kts 77°
2026-04-17 22:31 51.15377 -0.17233 212 ft 2 kts 78°
2026-04-17 22:31 51.15382 -0.17187 207 ft 6 kts 81°
2026-04-17 22:31 51.15400 -0.17113 210 ft 9 kts 81°
2026-04-17 22:31 51.15420 -0.17004 208 ft 12 kts 68°
2026-04-17 22:32 51.15438 -0.16903 208 ft 2 kts 76°
2026-04-17 22:32 51.15445 -0.16895 204 ft 1 kts 21°
2026-04-17 22:32 51.15479 -0.16898 204 ft 5 kts 353°
2026-04-17 22:32 51.15490 -0.16901 213 ft 1 kts 348°
2026-04-17 22:33 51.15498 -0.16903 210 ft 1 kts 349°
2026-04-17 22:33 51.15499 -0.16904 209 ft 0 kts 349°